Voltar ao catálogo

CRRES DEB

CANISTER

AtivoHEO
NORAD 27051·DEBRIS·🇺🇸 United States

Lançado Jul 25, 1990 de Cape Canaveral Space Force Station

Loading…

Próximas Passagens (próximas 24 horas)

TLE

AtualizadoSource: Space-Track

Época: Sep 14, 2026, 07:24 UTC

1 27051U 90065U   26257.30895542  .00000074  00000-0  34456-3 0  9999
2 27051  18.3369 354.1770 6823127  67.4788 348.4431  2.83262095135477

Acompanhe CRRES DEB em tempo real com AllMySat

Download on the App Store